This demonstration page uses our WeatherBlox Daily Observations layout. Learn more.

39.08367, -84.50855

Hourly Observations for August 3, 2019

Temp ( °F °C ) Dew Point ( °F °C ) Humidity (%) Winds ( mph kmh ) Pressure ( in mb ) Visibility ( mi km ) Precip ( " mm )
12:53 am 00:53 Clear 65 18.3 64 17.8 97 97 Calm 30.06 1018 10 16.09344 0 0
1:53 am 01:53 Clear 65 18.3 64 17.8 97 97 Calm 30.03 1017 9 14.484096 0 0
2:50 am 02:50 Clear with Mist and Fog 64 18 63 17 94 94 Calm 30.03 1017 1 1.609344 0 0
2:53 am 02:53 Clear with Mist and Fog 63 17.2 63 17.2 100 100 Calm 30.03 1017 1.5 2.414016 0 0
2:55 am 02:55 Clear with Mist and Fog 63 17.2 63 17.2 100 100 Calm 30.03 1017 4 6.437376 0 0
3:53 am 03:53 Clear 64 17.8 63 17.2 96 96 ENE 3 6 30.03 1017 9 14.484096 0 0
4:53 am 04:53 Clear with Mist and Fog 62 16.7 61 16.1 96 96 Calm 30.03 1017 6 9.656064 0 0
5:53 am 05:53 Clear with Mist and Fog 62 16.7 62 16.7 100 100 NE 3 6 30.03 1017 2.5 4.02336 0 0
6:00 am 06:00 Clear with Mist and Fog 62 16.7 61 16.1 96 96 ENE 5 7 30.03 1017 6 9.656064 0 0
6:53 am 06:53 Partly Cloudy with Mist and Fog 59 15 59 15 100 100 S 3 6 30.06 1018 6 9.656064 0 0
7:53 am 07:53 Mostly Sunny 64 17.8 63 17.2 96 96 Calm 30.06 1018 10 16.09344 0 0
8:53 am 08:53 Mostly Sunny 70 21.1 62 16.7 76 76 Calm 30.06 1018 10 16.09344 0 0
9:53 am 09:53 Mostly Sunny 74 23.3 64 17.8 71 71 NNE 5 7 30.06 1018 10 16.09344 0 0
10:53 am 10:53 Mostly Sunny 80 26.7 66 18.9 62 62 NNE 6 9 30.06 1018 10 16.09344 0 0
11:53 am 11:53 Partly Cloudy 81 27.2 64 17.8 57 57 Calm 30.06 1018 10 16.09344 0 0
12:53 pm 12:53 Partly Cloudy 84 28.9 62 16.7 48 48 VRB 6 9 30.03 1017 10 16.09344 0 0
1:53 pm 13:53 Partly Cloudy 85 29.4 61 16.1 45 45 NE 5 7 30.03 1017 10 16.09344 0 0
2:53 pm 14:53 Partly Cloudy 85 29.4 57 13.9 39 39 VRB 3 6 30 1016 10 16.09344 0 0
3:53 pm 15:53 Sunny 87 30.6 57 13.9 36 36 NNE 3 6 30 1016 10 16.09344 0 0
4:53 pm 16:53 Sunny 88 31.1 56 13.3 34 34 NE 7 11 29.97 1015 10 16.09344 0 0
5:53 pm 17:53 Sunny 87 30.6 54 12.2 32 32 N 6 9 29.97 1015 10 16.09344 0 0
6:53 pm 18:53 Sunny 86 30 52 11.1 31 31 NNE 7 11 29.94 1014 10 16.09344 0 0
7:53 pm 19:53 Sunny 82 27.8 59 15 46 46 NE 6 9 29.94 1014 10 16.09344 0 0
8:53 pm 20:53 Clear 71 21.7 62 16.7 73 73 Calm 29.97 1015 10 16.09344 0 0
9:53 pm 21:53 Clear 69 20.6 61 16.1 76 76 Calm 30 1016 10 16.09344 0 0
10:53 pm 22:53 Clear 67 19.4 62 16.7 84 84 Calm 30 1016 10 16.09344 0 0
11:53 pm 23:53 Clear 65 18.3 62 16.7 90 90 ENE 3 6 30 1016 10 16.09344 0 0

Powered by AerisWeather